Location: Newark
(41.0400°S, 62.7845°W)
Time: 03:36:17
(UTC+00:00)

Transit 2A - All Passes

Search period start: 30 November 2021 00:00
Search period end: 10 December 2021 00:00
Orbit: 591 x 967 km, 66.7° (Epoch: 29 November)

Date Brightness Start Highest point End Pass type
(mag) Time Alt. Az. Time Alt. Az. Time Alt. Az.
30 Nov - 00:28:58 10° SSE 00:30:25 11° SE 00:31:53 10° ESE visible
30 Nov - 02:09:49 10° SSW 02:14:13 86° ESE 02:18:46 10° NNE visible
30 Nov - 16:49:08 10° NNW 16:54:17 76° ENE 16:59:00 10° SSE daylight
30 Nov - 18:34:56 10° W 18:37:52 16° SW 18:40:41 10° S daylight
01 Dec - 01:35:41 10° SSW 01:39:59 55° ESE 01:44:26 10° NE visible
01 Dec - 03:20:16 10° WSW 03:22:39 14° WNW 03:25:06 10° NW visible
01 Dec - 16:15:09 10° N 16:20:07 49° ENE 16:24:41 10° SE daylight
01 Dec - 17:59:38 10° W 18:03:26 22° SW 18:07:03 10° S daylight
02 Dec - 01:01:39 10° SSW 01:05:41 36° SE 01:09:52 10° ENE visible
02 Dec - 02:45:10 10° WSW 02:48:36 22° WNW 02:52:10 10° NNW visible
02 Dec - 15:41:25 10° N 15:45:58 32° ENE 15:50:12 10° SE daylight
02 Dec - 17:24:40 10° WNW 17:29:05 31° SW 17:33:12 10° S daylight
03 Dec - 00:27:44 10° S 00:31:21 24° SE 00:35:03 10° ENE visible
03 Dec - 02:10:30 10° SW 02:14:30 35° WNW 02:18:41 10° N visible
03 Dec - 15:08:01 10° NNE 15:11:52 22° ENE 15:15:30 10° ESE daylight
03 Dec - 16:49:58 10° NW 16:54:46 44° SW 16:59:13 10° SSE daylight
03 Dec - 23:54:01 10° S 23:56:57 17° SE 23:59:56 10° E visible
04 Dec - 01:36:05 10° SW 01:40:22 55° WNW 01:44:53 10° NNE visible
04 Dec - 14:35:13 10° NE 14:37:49 14° ENE 14:40:19 10° ESE daylight
04 Dec - 16:15:28 10° NW 16:20:31 67° WSW 16:25:09 10° SSE daylight
04 Dec - 18:03:45 10° SW 18:04:27 10° SW 18:05:09 10° SSW daylight
04 Dec - 23:20:39 10° SSE 23:22:28 12° SE 23:24:19 10° ESE daylight
05 Dec - 01:01:47 10° SSW 01:06:12 88° WNW 01:10:48 10° NNE visible
05 Dec - 15:41:12 10° NNW 15:46:18 82° ENE 15:50:57 10° SSE daylight
05 Dec - 17:27:17 10° WSW 17:29:56 14° SW 17:32:29 10° S daylight
06 Dec - 00:27:38 10° SSW 00:31:58 59° ESE 00:36:30 10° NE visible
06 Dec - 02:12:28 10° WSW 02:14:37 13° WNW 02:16:49 10° NW visible
06 Dec - 15:07:10 10° NNW 15:12:07 53° ENE 15:16:40 10° SE daylight
06 Dec - 16:51:53 10° W 16:55:29 20° SW 16:58:54 10° S daylight
06 Dec - 23:53:35 10° SSW 23:57:42 39° SE 00:01:58 10° NE daylight
07 Dec - 01:37:14 10° WSW 01:40:34 21° WNW 01:44:02 10° NNW visible
07 Dec - 14:33:23 10° N 14:37:58 35° ENE 14:42:13 10° SE daylight
07 Dec - 16:16:51 10° WNW 16:21:06 28° SW 16:25:06 10° S daylight
07 Dec - 23:19:38 10° S 23:23:22 26° SE 23:27:13 10° ENE daylight
08 Dec - 01:02:32 10° SW 01:06:29 32° WNW 01:10:37 10° N visible
08 Dec - 13:59:56 10° NNE 14:03:51 23° ENE 14:07:34 10° ESE daylight
08 Dec - 15:42:06 10° NW 15:46:47 41° SW 15:51:08 10° SSE daylight
08 Dec - 22:45:52 10° S 22:48:58 19° SE 22:52:09 10° E daylight
09 Dec - 00:28:04 10° SW 00:32:21 51° WNW 00:36:52 10° N visible
09 Dec - 13:26:59 10° NE 13:29:48 15° ENE 13:32:29 10° ESE daylight
09 Dec - 15:07:34 10° NW 15:12:31 61° WSW 15:17:05 10° SSE daylight
09 Dec - 22:12:24 10° SSE 22:14:31 13° SE 22:16:40 10° ESE daylight
